Time,TemperatureF,DewpointF,PressureIn,WindDirection,WindDirectionDegrees,WindSpeedMPH,WindSpeedGustMPH,Humidity,HourlyPrecipIn,Conditions,Clouds,dailyrainin,SoftwareType,DateUTC
2013-02-22 00:01:00,40.0,37.0,30.04,SSE,154,1.0,5.0,90,0.00,,,-99.99,,2013-02-22 08:01:00,
2013-02-22 00:11:00,40.0,37.0,30.05,South,175,0.0,3.0,89,0.00,,,-99.99,,2013-02-22 08:11:00,
2013-02-22 00:21:00,40.0,37.0,30.05,South,175,0.0,3.0,89,0.00,,,-99.99,,2013-02-22 08:21:00,
2013-02-22 00:31:00,40.0,37.0,30.05,SSE,150,0.0,6.0,89,0.00,,,-99.99,,2013-02-22 08:31:00,
2013-02-22 00:41:00,40.0,37.0,30.05,SSE,150,0.0,6.0,89,0.00,,,-99.99,,2013-02-22 08:41:00,
2013-02-22 00:52:00,40.0,37.0,30.05,SSE,168,2.0,6.0,89,0.00,,,-99.99,,2013-02-22 08:52:00,
2013-02-22 01:02:00,40.0,37.0,30.04,SW,223,1.0,5.0,89,0.00,,,-99.99,,2013-02-22 09:02:00,
2013-02-22 01:11:00,40.0,37.0,30.04,South,178,1.0,7.0,89,0.00,,,-99.99,,2013-02-22 09:11:00,
2013-02-22 01:21:00,40.0,37.0,30.04,South,178,1.0,7.0,89,0.00,,,-99.99,,2013-02-22 09:21:00,
2013-02-22 01:31:00,40.0,37.0,30.04,ESE,123,1.0,4.0,88,0.00,,,-99.99,,2013-02-22 09:31:00,
2013-02-22 01:41:00,40.0,37.0,30.04,South,182,0.0,2.0,88,0.00,,,-99.99,,2013-02-22 09:41:00,
2013-02-22 01:52:00,40.0,37.0,30.04,South,182,0.0,2.0,88,0.00,,,-99.99,,2013-02-22 09:52:00,
2013-02-22 02:01:00,40.0,37.0,30.04,SSE,161,0.0,2.0,88,0.00,,,-99.99,,2013-02-22 10:01:00,
2013-02-22 02:11:00,40.0,37.0,30.04,SW,218,0.0,5.0,88,0.01,,,-99.99,,2013-02-22 10:11:00,
2013-02-22 02:21:00,40.0,37.0,30.04,SW,218,0.0,5.0,88,0.01,,,-99.99,,2013-02-22 10:21:00,
2013-02-22 02:31:00,40.0,37.0,30.03,SW,217,2.0,4.0,89,0.02,,,-99.99,,2013-02-22 10:31:00,
2013-02-22 02:42:00,40.0,37.0,30.03,SW,217,2.0,4.0,89,0.02,,,-99.99,,2013-02-22 10:42:00,
2013-02-22 02:52:00,40.0,37.0,30.03,South,173,0.0,2.0,89,0.02,,,-99.99,,2013-02-22 10:52:00,
2013-02-22 03:01:00,40.0,37.0,30.02,WSW,246,0.0,2.0,89,0.02,,,-99.99,,2013-02-22 11:01:00,
2013-02-22 03:11:00,39.0,36.0,30.01,WSW,246,0.0,0.0,89,0.01,,,-99.99,,2013-02-22 11:11:00,
2013-02-22 03:21:00,39.0,36.0,30.01,WSW,246,0.0,0.0,89,0.01,,,-99.99,,2013-02-22 11:21:00,
2013-02-22 03:31:00,39.0,36.0,30.01,WSW,246,0.0,0.0,89,0.00,,,-99.99,,2013-02-22 11:31:00,
2013-02-22 03:42:00,39.0,36.0,30.01,WSW,246,0.0,0.0,89,0.00,,,-99.99,,2013-02-22 11:42:00,
2013-02-22 03:52:00,39.0,36.0,30.01,WSW,246,0.0,1.0,89,0.01,,,-99.99,,2013-02-22 11:52:00,
2013-02-22 04:01:00,39.0,36.0,29.99,WSW,246,1.0,2.0,89,0.01,,,-99.99,,2013-02-22 12:01:00,
2013-02-22 04:11:00,39.0,36.0,29.99,WSW,246,1.0,2.0,89,0.01,,,-99.99,,2013-02-22 12:11:00,
2013-02-22 04:21:00,39.0,36.0,29.99,SSE,163,1.0,4.0,90,0.02,,,-99.99,,2013-02-22 12:21:00,
2013-02-22 04:32:00,39.0,36.0,29.98,SSE,163,0.0,2.0,90,0.02,,,-99.99,,2013-02-22 12:32:00,
2013-02-22 04:42:00,39.0,36.0,29.98,SSE,163,0.0,2.0,90,0.02,,,-99.99,,2013-02-22 12:42:00,
2013-02-22 04:52:00,39.0,36.0,29.96,SSE,163,0.0,1.0,90,0.01,,,-99.99,,2013-02-22 12:52:00,
2013-02-22 05:01:00,39.0,37.0,29.96,South,173,2.0,6.0,91,0.01,,,-99.99,,2013-02-22 13:01:00,
2013-02-22 05:11:00,39.0,37.0,29.96,South,173,2.0,6.0,91,0.01,,,-99.99,,2013-02-22 13:11:00,
2013-02-22 05:22:00,39.0,37.0,29.97,South,170,2.0,4.0,91,0.00,,,-99.99,,2013-02-22 13:22:00,
2013-02-22 05:31:00,39.0,37.0,29.95,South,177,1.0,5.0,91,0.00,,,-99.99,,2013-02-22 13:31:00,
2013-02-22 05:41:00,39.0,37.0,29.95,South,177,1.0,5.0,91,0.00,,,-99.99,,2013-02-22 13:41:00,
2013-02-22 05:52:00,39.0,37.0,29.94,SW,234,2.0,7.0,91,0.00,,,-99.99,,2013-02-22 13:52:00,
2013-02-22 06:01:00,40.0,37.0,29.94,SSE,166,1.0,7.0,90,0.00,,,-99.99,,2013-02-22 14:01:00,
2013-02-22 06:11:00,40.0,37.0,29.92,SE,146,4.0,10.0,90,0.00,,,-99.99,,2013-02-22 14:11:00,
2013-02-22 06:21:00,40.0,37.0,29.92,SE,146,4.0,10.0,90,0.00,,,-99.99,,2013-02-22 14:21:00,
2013-02-22 06:31:00,40.0,37.0,29.92,SSW,209,1.0,4.0,89,0.00,,,-99.99,,2013-02-22 14:31:00,
2013-02-22 06:41:00,40.0,37.0,29.91,SSE,164,1.0,6.0,89,0.00,,,-99.99,,2013-02-22 14:41:00,
2013-02-22 06:52:00,40.0,37.0,29.91,SSE,164,1.0,6.0,89,0.00,,,-99.99,,2013-02-22 14:52:00,
2013-02-22 07:01:00,40.0,37.0,29.89,SW,225,4.0,10.0,88,0.00,,,-99.99,,2013-02-22 15:01:00,
2013-02-22 07:11:00,41.0,37.0,29.87,South,178,3.0,13.0,86,0.00,,,-99.99,,2013-02-22 15:11:00,
2013-02-22 07:21:00,41.0,37.0,29.87,South,178,3.0,13.0,86,0.00,,,-99.99,,2013-02-22 15:21:00,
2013-02-22 07:31:00,41.0,37.0,29.86,South,178,3.0,14.0,85,0.00,,,-99.99,,2013-02-22 15:31:00,
2013-02-22 07:41:00,41.0,37.0,29.86,South,178,3.0,14.0,85,0.00,,,-99.99,,2013-02-22 15:41:00,
2013-02-22 07:52:00,42.0,37.0,29.85,SSW,211,3.0,14.0,82,0.00,,,-99.99,,2013-02-22 15:52:00,
2013-02-22 08:01:00,42.0,37.0,29.84,South,169,2.0,11.0,81,0.00,,,-99.99,,2013-02-22 16:01:00,
2013-02-22 08:11:00,43.0,38.0,29.85,East,100,3.0,12.0,81,0.00,,,-99.99,,2013-02-22 16:11:00,
2013-02-22 08:21:00,43.0,38.0,29.85,East,100,3.0,12.0,81,0.00,,,-99.99,,2013-02-22 16:21:00,
2013-02-22 08:31:00,43.0,38.0,29.84,SE,140,2.0,7.0,82,0.01,,,-99.99,,2013-02-22 16:31:00,
2013-02-22 08:41:00,43.0,38.0,29.84,SE,140,2.0,7.0,82,0.01,,,-99.99,,2013-02-22 16:41:00,
2013-02-22 08:52:00,42.0,38.0,29.84,West,259,3.0,6.0,85,0.03,,,-99.99,,2013-02-22 16:52:00,
2013-02-22 09:01:00,42.0,38.0,29.84,ESE,123,3.0,7.0,86,0.05,,,-99.99,,2013-02-22 17:01:00,
2013-02-22 09:11:00,42.0,39.0,29.83,South,191,1.0,8.0,88,0.08,,,-99.99,,2013-02-22 17:11:00,
2013-02-22 09:21:00,42.0,39.0,29.83,South,191,1.0,8.0,88,0.08,,,-99.99,,2013-02-22 17:21:00,
2013-02-22 09:31:00,41.0,38.0,29.81,SSW,200,5.0,11.0,88,0.08,,,-99.99,,2013-02-22 17:31:00,
2013-02-22 09:41:00,41.0,38.0,29.81,SSW,200,5.0,11.0,88,0.08,,,-99.99,,2013-02-22 17:41:00,
2013-02-22 09:52:00,41.0,38.0,29.81,South,184,2.0,13.0,89,0.11,,,-99.99,,2013-02-22 17:52:00,
2013-02-22 10:01:00,41.0,38.0,29.81,SSW,205,1.0,11.0,90,0.11,,,-99.99,,2013-02-22 18:01:00,
2013-02-22 10:11:00,41.0,38.0,29.81,South,186,2.0,9.0,90,0.11,,,-99.99,,2013-02-22 18:11:00,
2013-02-22 10:22:00,41.0,38.0,29.81,South,186,2.0,9.0,90,0.11,,,-99.99,,2013-02-22 18:22:00,
2013-02-22 10:31:00,41.0,38.0,29.80,South,175,2.0,12.0,90,0.12,,,-99.99,,2013-02-22 18:31:00,
2013-02-22 10:42:00,41.0,38.0,29.80,South,175,2.0,12.0,90,0.12,,,-99.99,,2013-02-22 18:42:00,
2013-02-22 10:52:00,41.0,39.0,29.79,South,190,6.0,13.0,91,0.10,,,-99.99,,2013-02-22 18:52:00,
2013-02-22 11:01:00,41.0,39.0,29.79,SSE,160,2.0,9.0,91,0.09,,,-99.99,,2013-02-22 19:01:00,
2013-02-22 11:11:00,41.0,39.0,29.79,SSE,160,4.0,13.0,91,0.07,,,-99.99,,2013-02-22 19:11:00,
2013-02-22 11:21:00,41.0,39.0,29.79,SSE,160,4.0,13.0,91,0.07,,,-99.99,,2013-02-22 19:21:00,
2013-02-22 11:31:00,41.0,39.0,29.79,SSE,148,2.0,9.0,91,0.06,,,-99.99,,2013-02-22 19:31:00,
2013-02-22 11:41:00,41.0,39.0,29.79,SSE,164,1.0,11.0,91,0.05,,,-99.99,,2013-02-22 19:41:00,
2013-02-22 11:52:00,41.0,39.0,29.79,SSE,164,1.0,11.0,91,0.05,,,-99.99,,2013-02-22 19:52:00,
2013-02-22 12:01:00,41.0,39.0,29.78,South,180,3.0,9.0,91,0.06,,,-99.99,,2013-02-22 20:01:00,
2013-02-22 12:11:00,41.0,39.0,29.78,South,180,3.0,9.0,91,0.06,,,-99.99,,2013-02-22 20:11:00,
2013-02-22 12:21:00,41.0,39.0,29.78,East,94,1.0,11.0,91,0.06,,,-99.99,,2013-02-22 20:21:00,
2013-02-22 12:31:00,41.0,39.0,29.76,SSE,155,1.0,17.0,91,0.06,,,-99.99,,2013-02-22 20:31:00,
2013-02-22 12:41:00,41.0,39.0,29.76,SSE,155,1.0,17.0,91,0.06,,,-99.99,,2013-02-22 20:41:00,
2013-02-22 12:52:00,41.0,38.0,29.75,SSE,165,6.0,15.0,90,0.06,,,-99.99,,2013-02-22 20:52:00,
2013-02-22 13:01:00,41.0,38.0,29.75,South,188,3.0,19.0,90,0.05,,,-99.99,,2013-02-22 21:01:00,
2013-02-22 13:11:00,41.0,38.0,29.74,SE,144,7.0,12.0,89,0.05,,,-99.99,,2013-02-22 21:11:00,
2013-02-22 13:21:00,41.0,38.0,29.74,SE,144,7.0,12.0,89,0.05,,,-99.99,,2013-02-22 21:21:00,
2013-02-22 13:31:00,41.0,38.0,29.75,SSW,196,3.0,16.0,89,0.05,,,-99.99,,2013-02-22 21:31:00,
2013-02-22 13:41:00,41.0,38.0,29.75,SSW,196,3.0,16.0,89,0.05,,,-99.99,,2013-02-22 21:41:00,
2013-02-22 13:52:00,41.0,38.0,29.73,SSW,199,5.0,13.0,89,0.05,,,-99.99,,2013-02-22 21:52:00,
2013-02-22 14:01:00,42.0,39.0,29.73,SSE,167,2.0,10.0,89,0.05,,,-99.99,,2013-02-22 22:01:00,
2013-02-22 14:11:00,42.0,39.0,29.73,SSE,167,2.0,10.0,89,0.05,,,-99.99,,2013-02-22 22:11:00,
2013-02-22 14:21:00,42.0,39.0,29.72,SE,134,4.0,11.0,89,0.04,,,-99.99,,2013-02-22 22:21:00,
2013-02-22 14:31:00,42.0,39.0,29.71,SW,227,2.0,9.0,89,0.03,,,-99.99,,2013-02-22 22:31:00,
2013-02-22 14:41:00,42.0,39.0,29.71,SW,227,2.0,9.0,89,0.03,,,-99.99,,2013-02-22 22:41:00,
2013-02-22 14:51:00,42.0,38.0,29.72,SSW,202,2.0,12.0,87,0.01,,,-99.99,,2013-02-22 22:51:00,
2013-02-22 15:01:00,42.0,38.0,29.70,SSE,153,6.0,14.0,87,0.01,,,-99.99,,2013-02-22 23:01:00,
2013-02-22 15:11:00,42.0,38.0,29.70,SSE,153,6.0,14.0,87,0.01,,,-99.99,,2013-02-22 23:11:00,
2013-02-22 15:21:00,42.0,38.0,29.71,SSE,166,4.0,10.0,87,0.01,,,-99.99,,2013-02-22 23:21:00,
2013-02-22 15:31:00,42.0,38.0,29.73,WNW,288,1.0,12.0,87,0.02,,,-99.99,,2013-02-22 23:31:00,
2013-02-22 15:41:00,42.0,38.0,29.73,WNW,288,1.0,12.0,87,0.02,,,-99.99,,2013-02-22 23:41:00,
2013-02-22 15:52:00,42.0,39.0,29.73,SW,215,3.0,12.0,88,0.03,,,-99.99,,2013-02-22 23:52:00,
2013-02-22 16:01:00,42.0,39.0,29.75,SSW,192,4.0,12.0,89,0.02,,,-99.99,,2013-02-23 00:01:00,
2013-02-22 16:11:00,42.0,39.0,29.75,South,175,4.0,7.0,90,0.02,,,-99.99,,2013-02-23 00:11:00,
2013-02-22 16:21:00,42.0,39.0,29.75,South,175,4.0,7.0,90,0.02,,,-99.99,,2013-02-23 00:21:00,
2013-02-22 16:31:00,42.0,39.0,29.75,South,184,5.0,12.0,90,0.03,,,-99.99,,2013-02-23 00:31:00,
2013-02-22 16:41:00,42.0,39.0,29.75,South,184,5.0,12.0,90,0.03,,,-99.99,,2013-02-23 00:41:00,
2013-02-22 16:52:00,42.0,39.0,29.76,SSE,159,2.0,6.0,90,0.01,,,-99.99,,2013-02-23 00:52:00,
2013-02-22 17:01:00,42.0,39.0,29.76,WSW,237,3.0,11.0,90,0.01,,,-99.99,,2013-02-23 01:01:00,
2013-02-22 17:11:00,42.0,39.0,29.76,WSW,237,3.0,11.0,90,0.01,,,-99.99,,2013-02-23 01:11:00,
2013-02-22 17:21:00,42.0,39.0,29.75,South,175,2.0,9.0,89,0.01,,,-99.99,,2013-02-23 01:21:00,
2013-02-22 17:31:00,42.0,39.0,29.75,WSW,242,3.0,9.0,88,0.00,,,-99.99,,2013-02-23 01:31:00,
2013-02-22 17:41:00,42.0,39.0,29.75,WSW,242,3.0,9.0,88,0.00,,,-99.99,,2013-02-23 01:41:00,
2013-02-22 17:51:00,41.0,37.0,29.75,SSW,210,2.0,13.0,86,0.00,,,-99.99,,2013-02-23 01:51:00,
2013-02-22 18:01:00,41.0,37.0,29.76,NW,326,3.0,12.0,86,0.00,,,-99.99,,2013-02-23 02:01:00,
2013-02-22 18:11:00,40.0,36.0,29.77,WNW,300,3.0,14.0,86,0.03,,,-99.99,,2013-02-23 02:11:00,
2013-02-22 18:21:00,40.0,36.0,29.77,WNW,300,3.0,14.0,86,0.03,,,-99.99,,2013-02-23 02:21:00,
2013-02-22 18:31:00,39.0,35.0,29.78,NW,304,2.0,11.0,87,0.03,,,-99.99,,2013-02-23 02:31:00,
2013-02-22 18:41:00,39.0,35.0,29.78,NW,304,2.0,11.0,87,0.03,,,-99.99,,2013-02-23 02:41:00,
2013-02-22 18:52:00,39.0,36.0,29.78,SE,143,1.0,5.0,88,0.03,,,-99.99,,2013-02-23 02:52:00,
2013-02-22 19:01:00,38.0,35.0,29.79,SSE,161,1.0,7.0,88,0.03,,,-99.99,,2013-02-23 03:01:00,
2013-02-22 19:11:00,38.0,35.0,29.80,ESE,122,4.0,12.0,90,0.00,,,-99.99,,2013-02-23 03:11:00,
2013-02-22 19:21:00,38.0,35.0,29.80,ESE,122,4.0,12.0,90,0.00,,,-99.99,,2013-02-23 03:21:00,
2013-02-22 19:31:00,38.0,35.0,29.80,SE,140,3.0,9.0,90,0.00,,,-99.99,,2013-02-23 03:31:00,
2013-02-22 19:41:00,38.0,35.0,29.80,SE,140,3.0,9.0,90,0.00,,,-99.99,,2013-02-23 03:41:00,
2013-02-22 19:52:00,38.0,35.0,29.80,NNW,342,2.0,9.0,90,0.00,,,-99.99,,2013-02-23 03:52:00,
2013-02-22 20:01:00,37.0,34.0,29.83,WSW,241,1.0,5.0,89,0.02,,,-99.99,,2013-02-23 04:01:00,
2013-02-22 20:11:00,37.0,34.0,29.83,WSW,250,2.0,11.0,89,0.03,,,-99.99,,2013-02-23 04:11:00,
2013-02-22 20:21:00,37.0,34.0,29.83,WSW,250,2.0,11.0,89,0.03,,,-99.99,,2013-02-23 04:21:00,
2013-02-22 20:31:00,36.0,33.0,29.84,SSE,164,4.0,9.0,90,0.04,,,-99.99,,2013-02-23 04:31:00,
2013-02-22 20:41:00,36.0,33.0,29.84,SSE,164,4.0,9.0,90,0.04,,,-99.99,,2013-02-23 04:41:00,
2013-02-22 20:51:00,35.0,32.0,29.82,SE,142,3.0,12.0,90,0.04,,,-99.99,,2013-02-23 04:51:00,
2013-02-22 21:01:00,35.0,32.0,29.82,SSE,151,1.0,10.0,89,0.02,,,-99.99,,2013-02-23 05:01:00,
2013-02-22 21:11:00,35.0,32.0,29.82,SSE,151,1.0,10.0,89,0.02,,,-99.99,,2013-02-23 05:11:00,
2013-02-22 21:22:00,34.0,31.0,29.84,South,171,1.0,2.0,90,0.01,,,0.56,,2013-02-23 05:22:00,
2013-02-22 21:32:00,34.0,31.0,29.85,South,171,0.0,3.0,90,0.00,,,0.56,,2013-02-23 05:32:00,
2013-02-22 21:41:00,34.0,31.0,29.85,South,171,0.0,3.0,90,0.00,,,0.56,,2013-02-23 05:41:00,
2013-02-22 21:52:00,34.0,31.0,29.86,SE,145,1.0,5.0,90,0.00,,,0.56,,2013-02-23 05:52:00,
2013-02-22 22:01:00,34.0,32.0,29.86,East,96,2.0,5.0,91,0.00,,,0.56,,2013-02-23 06:01:00,
2013-02-22 22:11:00,34.0,32.0,29.86,East,96,2.0,5.0,91,0.00,,,0.56,,2013-02-23 06:11:00,
2013-02-22 22:21:00,34.0,32.0,29.87,South,186,2.0,5.0,92,0.00,,,0.56,,2013-02-23 06:21:00,
2013-02-22 22:31:00,34.0,32.0,29.87,SSE,150,2.0,6.0,92,0.00,,,0.56,,2013-02-23 06:31:00,
2013-02-22 22:41:00,34.0,32.0,29.87,SSE,150,2.0,6.0,92,0.00,,,0.56,,2013-02-23 06:41:00,
2013-02-22 22:52:00,35.0,33.0,29.88,SSW,211,1.0,7.0,93,0.01,,,0.57,,2013-02-23 06:52:00,
2013-02-22 23:01:00,35.0,33.0,29.89,NW,311,1.0,9.0,93,0.01,,,0.57,,2013-02-23 07:01:00,
2013-02-22 23:11:00,35.0,33.0,29.89,NW,311,1.0,9.0,93,0.01,,,0.57,,2013-02-23 07:11:00,
2013-02-22 23:21:00,36.0,34.0,29.90,South,189,3.0,6.0,93,0.01,,,0.57,,2013-02-23 07:21:00,
2013-02-22 23:31:00,36.0,34.0,29.90,South,184,2.0,7.0,93,0.01,,,0.57,,2013-02-23 07:31:00,
2013-02-22 23:41:00,36.0,34.0,29.90,South,184,2.0,7.0,93,0.01,,,0.57,,2013-02-23 07:41:00,
2013-02-22 23:52:00,36.0,34.0,29.91,SE,136,1.0,9.0,92,0.00,,,0.57,,2013-02-23 07:52:00,